Hill City, KS

9:44 AM CDT on October 23, 2017 (GMT -0500)
Hill City Municipal

Weather History for KHLC - March, 2013

Change the Weather History Date:

Saturday, March 30, 2013

  Actual Average Record
Temperature  
Mean Temperature 58 °F 46 °F  
Max Temperature 70 °F 60 °F 93 °F (1943)
Min Temperature 45 °F 32 °F -1 °F (1987)
Degree Days  
Heating Degree Days 8    
Growing Degree Days 8 (Base 50)    
Moisture  
Dew Point 45 °F    
Average Humidity 72    
Maximum Humidity 97    
Minimum Humidity 31    
Precipitation  
Precipitation 0.16 in 0.07 in 0.58 in (2005)
Month to date precipitation 0.61 1.55  
Year to date precipitation 1.80 2.52  
Sea Level Pressure  
Sea Level Pressure 29.98 in    
Wind  
Wind Speed 10 mph (NNW)    
Max Wind Speed 32 mph    
Max Gust Speed 47 mph    
Visibility 9 miles    
Events Rain , Thunderstorm    
T = Trace of Precipitation, MM = Missing Value Source: NWS Daily Summary

Daily Weather History Graph

Daily Weather History Graph

Search for Another Location

Airport or City:

Trip Planner

Search our weather history database for the weather conditions in past years. The results will help you decide how hot, cold, wet, or windy it might be!

Date:

Astronomy

Mar. 30, 2013 Rise Set
Actual Time 7:26 AM CDT 8:01 PM CDT
Civil Twilight 6:59 AM CDT 8:28 PM CDT
Nautical Twilight 6:27 AM CDT 9:00 PM CDT
Astronomical Twilight 5:54 AM CDT 9:33 PM CDT
Moon No Moon Rise 9:24 AM CDT (3/30)
Length of Visible Light 13h 29m
Length of Day
12h 35m
Waning Gibbous, 86% of the Moon is Illuminated
Mar 30
Waning Gibbous
Apr 2
Last Quarter
Apr 10
New
Apr 18
First Quarter
Apr 25
Full

Hourly Weather History & Observations

Time (CDT) Temp. Windchill Dew Point Humidity Pressure Visibility Wind Dir Wind Speed Gust Speed Precip Events Conditions
12:53 AM 55.9 °F - 52.0 °F 87% 29.97 in 10.0 mi South 8.1 mph - 0.06 in   Clear
1:53 AM 55.0 °F - 52.0 °F 89% 29.96 in 8.0 mi SSW 10.4 mph - N/A   Clear
2:48 AM 53.6 °F - 51.8 °F 94% 29.99 in 7.0 mi SW 6.9 mph - N/A   Mostly Cloudy
2:53 AM 54.0 °F - 52.0 °F 93% 29.96 in 7.0 mi SSW 6.9 mph - N/A   Mostly Cloudy
3:53 AM 52.0 °F - 48.9 °F 89% 29.94 in 9.0 mi WSW 9.2 mph - N/A   Scattered Clouds
4:53 AM 50.0 °F - 48.0 °F 93% 29.92 in 7.0 mi WSW 6.9 mph - N/A   Clear
5:53 AM 48.9 °F - 48.0 °F 97% 29.91 in 5.0 mi West 10.4 mph - N/A   Clear
6:53 AM 46.9 °F - 41.0 °F 80% 29.91 in 10.0 mi West 11.5 mph - N/A   Clear
7:53 AM 45.0 °F 39.7 °F 39.9 °F 82% 29.95 in 10.0 mi West 10.4 mph - N/A   Clear
8:53 AM 48.9 °F - 44.1 °F 83% 29.96 in 10.0 mi NNW 18.4 mph 27.6 mph N/A   Clear
9:53 AM 54.0 °F - 46.9 °F 77% 29.98 in 10.0 mi North 17.3 mph - N/A   Clear
10:53 AM 57.0 °F - 48.0 °F 72% 29.99 in 10.0 mi North 13.8 mph 23.0 mph N/A   Clear
11:53 AM 57.9 °F - 48.0 °F 70% 30.01 in 10.0 mi NNE 11.5 mph - N/A   Clear
12:53 PM 62.1 °F - 45.0 °F 53% 30.01 in 10.0 mi NNE 12.7 mph 19.6 mph N/A   Clear
1:53 PM 66.0 °F - 41.0 °F 40% 29.98 in 10.0 mi NE 15.0 mph 21.9 mph N/A   Clear
2:53 PM 68.0 °F - 39.0 °F 35% 29.96 in 10.0 mi NNE 12.7 mph 24.2 mph N/A   Clear
3:53 PM 69.1 °F - 39.0 °F 33% 29.94 in 10.0 mi Calm Calm - N/A   Clear
4:53 PM 70.0 °F - 39.0 °F 32% 29.94 in 10.0 mi North 9.2 mph - N/A   Clear
5:53 PM 69.1 °F - 37.0 °F 31% 29.93 in 10.0 mi North 4.6 mph - N/A   Partly Cloudy
6:53 PM 66.9 °F - 37.9 °F 34% 29.92 in 10.0 mi ENE 4.6 mph - N/A   Clear
7:53 PM 60.1 °F - 41.0 °F 49% 29.95 in 10.0 mi NE 6.9 mph - N/A Thunderstorm Mostly Cloudy
8:20 PM 51.8 °F - 48.2 °F 88% 30.04 in 2.5 mi NNW 32.2 mph 47.2 mph 0.05 in Rain Heavy Rain
8:30 PM 51.8 °F - 48.2 °F 88% 30.05 in 3.0 mi NNW 23.0 mph 34.5 mph 0.09 in Rain Rain
8:53 PM 52.0 °F - 48.9 °F 89% 30.03 in 10.0 mi North 15.0 mph - 0.10 in Rain Light Rain
9:53 PM 51.1 °F - 48.0 °F 89% 30.07 in 10.0 mi North 8.1 mph - 0.00 in Rain Light Rain
10:53 PM 48.9 °F - 46.9 °F 93% 30.08 in 10.0 mi NNE 6.9 mph - 0.06 in Rain Light Rain
11:53 PM 48.9 °F - 46.9 °F 93% 30.10 in 10.0 mi West 3.5 mph - 0.00 in   Mostly Cloudy